owner,sensor,date,latitude,longitude,sea_surface_height_above_sea_level,qcFlag 
TCOON,ioos:station:TCOON:031:1,2017-08-01T00:18:00Z,28.4073,-96.7122,0.46,1111122 
TCOON,ioos:station:TCOON:031:1,2017-08-01T01:18:00Z,28.4073,-96.7122,0.469,1111122 
TCOON,ioos:station:TCOON:031:1,2017-08-01T02:18:00Z,28.4073,-96.7122,0.483,1111122 
TCOON,ioos:station:TCOON:031:1,2017-08-01T03:18:00Z,28.4073,-96.7122,0.465,1111122 
TCOON,ioos:station:TCOON:031:1,2017-08-01T04:18:00Z,28.4073,-96.7122,0.452,1111122 
TCOON,ioos:station:TCOON:031:1,2017-08-01T05:18:00Z,28.4073,-96.7122,0.448,1111122 
TCOON,ioos:station:TCOON:031:1,2017-08-01T06:18:00Z,28.4073,-96.7122,0.468,1111122 
TCOON,ioos:station:TCOON:031:1,2017-08-01T07:18:00Z,28.4073,-96.7122,0.458,1111122 
TCOON,ioos:station:TCOON:031:1,2017-08-01T08:18:00Z,28.4073,-96.7122,0.459,1111122 
TCOON,ioos:station:TCOON:031:1,2017-08-01T09:18:00Z,28.4073,-96.7122,0.455,1111122 
TCOON,ioos:station:TCOON:031:1,2017-08-01T10:18:00Z,28.4073,-96.7122,0.463,1111122 
TCOON,ioos:station:TCOON:031:1,2017-08-01T11:18:00Z,28.4073,-96.7122,0.477,1111122 
TCOON,ioos:station:TCOON:031:1,2017-08-01T12:18:00Z,28.4073,-96.7122,0.475,1111122 
TCOON,ioos:station:TCOON:031:1,2017-08-01T13:18:00Z,28.4073,-96.7122,0.475,1111122 
TCOON,ioos:station:TCOON:031:1,2017-08-01T14:18:00Z,28.4073,-96.7122,0.477,1111122 
TCOON,ioos:station:TCOON:031:1,2017-08-01T15:18:00Z,28.4073,-96.7122,0.495,1111122 
TCOON,ioos:station:TCOON:031:1,2017-08-01T16:18:00Z,28.4073,-96.7122,0.51,1111122 
TCOON,ioos:station:TCOON:031:1,2017-08-01T17:18:00Z,28.4073,-96.7122,0.529,1111122 
TCOON,ioos:station:TCOON:031:1,2017-08-01T19:24:00Z,28.4073,-96.7122,0.559,1111122 
TCOON,ioos:station:TCOON:031:1,2017-08-01T20:24:00Z,28.4073,-96.7122,0.568,1111122 
TCOON,ioos:station:TCOON:031:1,2017-08-01T21:48:00Z,28.4073,-96.7122,0.567,1111122 
TCOON,ioos:station:TCOON:031:1,2017-08-01T22:24:00Z,28.4073,-96.7122,0.577,1111122 
TCOON,ioos:station:TCOON:031:1,2017-08-02T01:18:00Z,28.4073,-96.7122,0.561,1111122 
TCOON,ioos:station:TCOON:031:1,2017-08-02T02:18:00Z,28.4073,-96.7122,0.571,1111122 
TCOON,ioos:station:TCOON:031:1,2017-08-02T03:18:00Z,28.4073,-96.7122,0.564,1111122 
TCOON,ioos:station:TCOON:031:1,2017-08-02T04:18:00Z,28.4073,-96.7122,0.571,1111122 
TCOON,ioos:station:TCOON:031:1,2017-08-02T05:24:00Z,28.4073,-96.7122,0.548,1111122 
TCOON,ioos:station:TCOON:031:1,2017-08-02T06:18:00Z,28.4073,-96.7122,0.54,1111122 
TCOON,ioos:station:TCOON:031:1,2017-08-02T07:30:00Z,28.4073,-96.7122,0.536,1111122 
TCOON,ioos:station:TCOON:031:1,2017-08-02T08:30:00Z,28.4073,-96.7122,0.551,1111122 
TCOON,ioos:station:TCOON:031:1,2017-08-02T09:30:00Z,28.4073,-96.7122,0.558,1111122 
TCOON,ioos:station:TCOON:031:1,2017-08-02T10:30:00Z,28.4073,-96.7122,0.575,1111122 
TCOON,ioos:station:TCOON:031:1,2017-08-02T11:30:00Z,28.4073,-96.7122,0.569,1111122 
TCOON,ioos:station:TCOON:031:1,2017-08-02T12:24:00Z,28.4073,-96.7122,0.568,1111122 
TCOON,ioos:station:TCOON:031:1,2017-08-02T13:24:00Z,28.4073,-96.7122,0.568,1111122 
TCOON,ioos:station:TCOON:031:1,2017-08-02T14:30:00Z,28.4073,-96.7122,0.57,1111122 
TCOON,ioos:station:TCOON:031:1,2017-08-02T15:24:00Z,28.4073,-96.7122,0.58,1111122 
TCOON,ioos:station:TCOON:031:1,2017-08-02T16:30:00Z,28.4073,-96.7122,0.591,1111122 
TCOON,ioos:station:TCOON:031:1,2017-08-02T17:24:00Z,28.4073,-96.7122,0.606,1111122 
TCOON,ioos:station:TCOON:031:1,2017-08-02T18:18:00Z,28.4073,-96.7122,0.63,1111122 
TCOON,ioos:station:TCOON:031:1,2017-08-02T19:18:00Z,28.4073,-96.7122,0.658,1111122 
TCOON,ioos:station:TCOON:031:1,2017-08-02T20:18:00Z,28.4073,-96.7122,0.67,1111122 
TCOON,ioos:station:TCOON:031:1,2017-08-02T23:36:00Z,28.4073,-96.7122,0.58,1111122 
TCOON,ioos:station:TCOON:031:1,2017-08-03T01:30:00Z,28.4073,-96.7122,0.638,1111122 
TCOON,ioos:station:TCOON:031:1,2017-08-03T03:18:00Z,28.4073,-96.7122,0.612,1111122 
TCOON,ioos:station:TCOON:031:1,2017-08-03T07:24:00Z,28.4073,-96.7122,0.59,1111122 
TCOON,ioos:station:TCOON:031:1,2017-08-03T08:36:00Z,28.4073,-96.7122,0.582,1111122 
TCOON,ioos:station:TCOON:031:1,2017-08-03T09:36:00Z,28.4073,-96.7122,0.566,1111122 
TCOON,ioos:station:TCOON:031:1,2017-08-03T10:48:00Z,28.4073,-96.7122,0.721,1111122 
TCOON,ioos:station:TCOON:031:1,2017-08-03T11:36:00Z,28.4073,-96.7122,0.585,1111122 
TCOON,ioos:station:TCOON:031:1,2017-08-03T12:42:00Z,28.4073,-96.7122,0.602,1111122 
TCOON,ioos:station:TCOON:031:1,2017-08-03T13:24:00Z,28.4073,-96.7122,0.58,1111122 
TCOON,ioos:station:TCOON:031:1,2017-08-03T14:18:00Z,28.4073,-96.7122,0.633,1111122 
TCOON,ioos:station:TCOON:031:1,2017-08-03T15:18:00Z,28.4073,-96.7122,0.572,1111122 
TCOON,ioos:station:TCOON:031:1,2017-08-03T16:30:00Z,28.4073,-96.7122,0.633,1111122 
TCOON,ioos:station:TCOON:031:1,2017-08-04T00:42:00Z,28.4073,-96.7122,0.659,1111122 
TCOON,ioos:station:TCOON:031:1,2017-08-04T03:42:00Z,28.4073,-96.7122,0.628,1111122 
TCOON,ioos:station:TCOON:031:1,2017-08-04T06:24:00Z,28.4073,-96.7122,0.617,1111122 
TCOON,ioos:station:TCOON:031:1,2017-08-04T09:30:00Z,28.4073,-96.7122,0.553,1111122 
TCOON,ioos:station:TCOON:031:1,2017-08-04T16:24:00Z,28.4073,-96.7122,0.578,1111122 
TCOON,ioos:station:TCOON:031:1,2017-08-04T19:48:00Z,28.4073,-96.7122,0.595,1111122 
TCOON,ioos:station:TCOON:031:1,2017-08-04T20:12:00Z,28.4073,-96.7122,0.597,1111122 
TCOON,ioos:station:TCOON:031:1,2017-08-04T21:24:00Z,28.4073,-96.7122,0.619,1111122 
TCOON,ioos:station:TCOON:031:1,2017-08-04T22:30:00Z,28.4073,-96.7122,0.645,1111122 
TCOON,ioos:station:TCOON:031:1,2017-08-05T05:18:00Z,28.4073,-96.7122,0.578,1111122 
TCOON,ioos:station:TCOON:031:1,2017-08-05T06:18:00Z,28.4073,-96.7122,0.574,1111122 
TCOON,ioos:station:TCOON:031:1,2017-08-05T07:18:00Z,28.4073,-96.7122,0.545,1111122 
TCOON,ioos:station:TCOON:031:1,2017-08-05T08:18:00Z,28.4073,-96.7122,0.536,1111122 
TCOON,ioos:station:TCOON:031:1,2017-08-05T09:24:00Z,28.4073,-96.7122,0.543,1111122 
TCOON,ioos:station:TCOON:031:1,2017-08-05T10:36:00Z,28.4073,-96.7122,0.536,1111122 
TCOON,ioos:station:TCOON:031:1,2017-08-05T11:36:00Z,28.4073,-96.7122,0.525,1111122 
TCOON,ioos:station:TCOON:031:1,2017-08-05T12:30:00Z,28.4073,-96.7122,0.523,1111122 
TCOON,ioos:station:TCOON:031:1,2017-08-05T13:42:00Z,28.4073,-96.7122,0.538,1111122 
TCOON,ioos:station:TCOON:031:1,2017-08-05T14:24:00Z,28.4073,-96.7122,0.543,1111122 
TCOON,ioos:station:TCOON:031:1,2017-08-05T16:48:00Z,28.4073,-96.7122,0.56,1111122 
TCOON,ioos:station:TCOON:031:1,2017-08-05T17:42:00Z,28.4073,-96.7122,0.587,1111122 
TCOON,ioos:station:TCOON:031:1,2017-08-05T19:48:00Z,28.4073,-96.7122,0.597,1111122 
TCOON,ioos:station:TCOON:031:1,2017-08-05T20:54:00Z,28.4073,-96.7122,0.607,1111122 
TCOON,ioos:station:TCOON:031:1,2017-08-05T22:00:00Z,28.4073,-96.7122,0.616,1111122 
TCOON,ioos:station:TCOON:031:1,2017-08-05T22:24:00Z,28.4073,-96.7122,0.622,1111122 
TCOON,ioos:station:TCOON:031:1,2017-08-06T03:18:00Z,28.4073,-96.7122,0.648,1111122 
TCOON,ioos:station:TCOON:031:1,2017-08-06T04:18:00Z,28.4073,-96.7122,0.655,1111122 
TCOON,ioos:station:TCOON:031:1,2017-08-06T05:18:00Z,28.4073,-96.7122,0.637,1111122 
TCOON,ioos:station:TCOON:031:1,2017-08-06T06:18:00Z,28.4073,-96.7122,0.632,1111122 
TCOON,ioos:station:TCOON:031:1,2017-08-06T07:18:00Z,28.4073,-96.7122,0.622,1111122 
TCOON,ioos:station:TCOON:031:1,2017-08-06T08:18:00Z,28.4073,-96.7122,0.612,1111122 
TCOON,ioos:station:TCOON:031:1,2017-08-06T09:18:00Z,28.4073,-96.7122,0.6,1111122 
TCOON,ioos:station:TCOON:031:1,2017-08-06T10:18:00Z,28.4073,-96.7122,0.592,1111122 
TCOON,ioos:station:TCOON:031:1,2017-08-06T11:18:00Z,28.4073,-96.7122,0.575,1111122 
TCOON,ioos:station:TCOON:031:1,2017-08-06T12:18:00Z,28.4073,-96.7122,0.585,1111122 
TCOON,ioos:station:TCOON:031:1,2017-08-06T13:18:00Z,28.4073,-96.7122,0.579,1111122 
TCOON,ioos:station:TCOON:031:1,2017-08-06T14:18:00Z,28.4073,-96.7122,0.583,1111122 
TCOON,ioos:station:TCOON:031:1,2017-08-06T15:18:00Z,28.4073,-96.7122,0.572,1111122 
TCOON,ioos:station:TCOON:031:1,2017-08-06T16:18:00Z,28.4073,-96.7122,0.585,1111122 
TCOON,ioos:station:TCOON:031:1,2017-08-06T17:18:00Z,28.4073,-96.7122,0.598,1111122 
TCOON,ioos:station:TCOON:031:1,2017-08-06T18:18:00Z,28.4073,-96.7122,0.594,1111122 
TCOON,ioos:station:TCOON:031:1,2017-08-06T19:18:00Z,28.4073,-96.7122,0.602,1111122 
TCOON,ioos:station:TCOON:031:1,2017-08-06T20:18:00Z,28.4073,-96.7122,0.652,1111122 
TCOON,ioos:station:TCOON:031:1,2017-08-06T21:18:00Z,28.4073,-96.7122,0.666,1111122 
TCOON,ioos:station:TCOON:031:1,2017-08-06T22:18:00Z,28.4073,-96.7122,0.687,1111122 
TCOON,ioos:station:TCOON:031:1,2017-08-06T23:18:00Z,28.4073,-96.7122,0.688,1111122 
TCOON,ioos:station:TCOON:031:1,2017-08-07T00:18:00Z,28.4073,-96.7122,0.679,1111122 
TCOON,ioos:station:TCOON:031:1,2017-08-07T01:18:00Z,28.4073,-96.7122,0.652,1111122 
TCOON,ioos:station:TCOON:031:1,2017-08-07T02:18:00Z,28.4073,-96.7122,0.653,1111122 
TCOON,ioos:station:TCOON:031:1,2017-08-07T03:18:00Z,28.4073,-96.7122,0.672,1111122 
TCOON,ioos:station:TCOON:031:1,2017-08-07T04:18:00Z,28.4073,-96.7122,0.657,1111122 
TCOON,ioos:station:TCOON:031:1,2017-08-07T05:18:00Z,28.4073,-96.7122,0.633,1111122 
TCOON,ioos:station:TCOON:031:1,2017-08-07T06:18:00Z,28.4073,-96.7122,0.612,1111122 
TCOON,ioos:station:TCOON:031:1,2017-08-07T07:18:00Z,28.4073,-96.7122,0.622,1111122 
TCOON,ioos:station:TCOON:031:1,2017-08-07T08:18:00Z,28.4073,-96.7122,0.635,1111122 
TCOON,ioos:station:TCOON:031:1,2017-08-07T09:18:00Z,28.4073,-96.7122,0.619,1111122 
TCOON,ioos:station:TCOON:031:1,2017-08-07T10:18:00Z,28.4073,-96.7122,0.597,1111122 
TCOON,ioos:station:TCOON:031:1,2017-08-07T11:18:00Z,28.4073,-96.7122,0.587,1111122 
TCOON,ioos:station:TCOON:031:1,2017-08-07T12:18:00Z,28.4073,-96.7122,0.578,1111122 
TCOON,ioos:station:TCOON:031:1,2017-08-07T13:18:00Z,28.4073,-96.7122,0.603,1111122 
TCOON,ioos:station:TCOON:031:1,2017-08-07T14:18:00Z,28.4073,-96.7122,0.575,1111122 
TCOON,ioos:station:TCOON:031:1,2017-08-07T15:18:00Z,28.4073,-96.7122,0.563,1111122 
TCOON,ioos:station:TCOON:031:1,2017-08-07T16:18:00Z,28.4073,-96.7122,0.575,1111122 
TCOON,ioos:station:TCOON:031:1,2017-08-07T17:18:00Z,28.4073,-96.7122,0.564,1111122 
TCOON,ioos:station:TCOON:031:1,2017-08-07T18:18:00Z,28.4073,-96.7122,0.558,1111122 
TCOON,ioos:station:TCOON:031:1,2017-08-07T19:18:00Z,28.4073,-96.7122,0.574,1111122 
TCOON,ioos:station:TCOON:031:1,2017-08-07T20:18:00Z,28.4073,-96.7122,0.581,1111122 
TCOON,ioos:station:TCOON:031:1,2017-08-07T21:18:00Z,28.4073,-96.7122,0.591,1111122 
TCOON,ioos:station:TCOON:031:1,2017-08-07T22:18:00Z,28.4073,-96.7122,0.595,1111122 
TCOON,ioos:station:TCOON:031:1,2017-08-07T23:18:00Z,28.4073,-96.7122,0.612,1111122 
TCOON,ioos:station:TCOON:031:1,2017-08-08T00:18:00Z,28.4073,-96.7122,0.624,1111122 
TCOON,ioos:station:TCOON:031:1,2017-08-08T01:18:00Z,28.4073,-96.7122,0.638,1111122 
TCOON,ioos:station:TCOON:031:1,2017-08-08T02:18:00Z,28.4073,-96.7122,0.611,1111122 
TCOON,ioos:station:TCOON:031:1,2017-08-08T03:18:00Z,28.4073,-96.7122,0.628,1111122 
TCOON,ioos:station:TCOON:031:1,2017-08-08T04:18:00Z,28.4073,-96.7122,0.638,1111122 
TCOON,ioos:station:TCOON:031:1,2017-08-08T05:18:00Z,28.4073,-96.7122,0.612,1111122 
TCOON,ioos:station:TCOON:031:1,2017-08-08T06:18:00Z,28.4073,-96.7122,0.593,1111122 
TCOON,ioos:station:TCOON:031:1,2017-08-08T07:18:00Z,28.4073,-96.7122,0.565,1111122 
TCOON,ioos:station:TCOON:031:1,2017-08-08T08:18:00Z,28.4073,-96.7122,0.554,1111122 
TCOON,ioos:station:TCOON:031:1,2017-08-08T09:18:00Z,28.4073,-96.7122,0.547,1111122 
TCOON,ioos:station:TCOON:031:1,2017-08-08T10:18:00Z,28.4073,-96.7122,0.533,1111122 
TCOON,ioos:station:TCOON:031:1,2017-08-08T11:18:00Z,28.4073,-96.7122,0.503,1111122 
TCOON,ioos:station:TCOON:031:1,2017-08-08T12:18:00Z,28.4073,-96.7122,0.479,1111122 
TCOON,ioos:station:TCOON:031:1,2017-08-08T13:18:00Z,28.4073,-96.7122,0.485,1111122 
TCOON,ioos:station:TCOON:031:1,2017-08-08T14:18:00Z,28.4073,-96.7122,0.51,1111122 
TCOON,ioos:station:TCOON:031:1,2017-08-08T15:18:00Z,28.4073,-96.7122,0.523,1111122 
TCOON,ioos:station:TCOON:031:1,2017-08-08T16:18:00Z,28.4073,-96.7122,0.532,1111122 
TCOON,ioos:station:TCOON:031:1,2017-08-08T17:18:00Z,28.4073,-96.7122,0.53,1111122 
TCOON,ioos:station:TCOON:031:1,2017-08-08T18:18:00Z,28.4073,-96.7122,0.542,1111122 
TCOON,ioos:station:TCOON:031:1,2017-08-08T19:18:00Z,28.4073,-96.7122,0.546,1111122 
TCOON,ioos:station:TCOON:031:1,2017-08-08T20:18:00Z,28.4073,-96.7122,0.56,1111122 
TCOON,ioos:station:TCOON:031:1,2017-08-08T21:18:00Z,28.4073,-96.7122,0.574,1111122 
TCOON,ioos:station:TCOON:031:1,2017-08-08T22:18:00Z,28.4073,-96.7122,0.584,1111122 
TCOON,ioos:station:TCOON:031:1,2017-08-08T23:18:00Z,28.4073,-96.7122,0.568,1111122 
TCOON,ioos:station:TCOON:031:1,2017-08-09T00:18:00Z,28.4073,-96.7122,0.598,1111122 
TCOON,ioos:station:TCOON:031:1,2017-08-09T01:18:00Z,28.4073,-96.7122,0.595,1111122 
TCOON,ioos:station:TCOON:031:1,2017-08-09T02:18:00Z,28.4073,-96.7122,0.609,1111122 
TCOON,ioos:station:TCOON:031:1,2017-08-09T03:18:00Z,28.4073,-96.7122,0.589,1111122 
TCOON,ioos:station:TCOON:031:1,2017-08-09T04:18:00Z,28.4073,-96.7122,0.592,1111122 
TCOON,ioos:station:TCOON:031:1,2017-08-09T05:18:00Z,28.4073,-96.7122,0.574,1111122 
TCOON,ioos:station:TCOON:031:1,2017-08-09T06:18:00Z,28.4073,-96.7122,0.559,1111122 
TCOON,ioos:station:TCOON:031:1,2017-08-09T07:18:00Z,28.4073,-96.7122,0.554,1111122 
TCOON,ioos:station:TCOON:031:1,2017-08-09T08:18:00Z,28.4073,-96.7122,0.53,1111122 
TCOON,ioos:station:TCOON:031:1,2017-08-09T09:18:00Z,28.4073,-96.7122,0.518,1111122 
TCOON,ioos:station:TCOON:031:1,2017-08-09T10:18:00Z,28.4073,-96.7122,0.502,1111122 
TCOON,ioos:station:TCOON:031:1,2017-08-09T11:18:00Z,28.4073,-96.7122,0.493,1111122 
TCOON,ioos:station:TCOON:031:1,2017-08-09T12:18:00Z,28.4073,-96.7122,0.492,1111122 
TCOON,ioos:station:TCOON:031:1,2017-08-09T13:18:00Z,28.4073,-96.7122,0.478,1111122 
TCOON,ioos:station:TCOON:031:1,2017-08-09T14:18:00Z,28.4073,-96.7122,0.494,1111122 
TCOON,ioos:station:TCOON:031:1,2017-08-09T15:18:00Z,28.4073,-96.7122,0.524,1111122 
TCOON,ioos:station:TCOON:031:1,2017-08-09T16:18:00Z,28.4073,-96.7122,0.563,1111122 
TCOON,ioos:station:TCOON:031:1,2017-08-09T22:42:00Z,28.4073,-96.7122,0.603,1111122 
TCOON,ioos:station:TCOON:031:1,2017-08-09T23:18:00Z,28.4073,-96.7122,0.599,1111122 
TCOON,ioos:station:TCOON:031:1,2017-08-10T00:18:00Z,28.4073,-96.7122,0.635,1111122 
TCOON,ioos:station:TCOON:031:1,2017-08-10T01:18:00Z,28.4073,-96.7122,0.613,1111122 
TCOON,ioos:station:TCOON:031:1,2017-08-10T02:18:00Z,28.4073,-96.7122,0.612,1111122 
TCOON,ioos:station:TCOON:031:1,2017-08-10T03:18:00Z,28.4073,-96.7122,0.636,1111122 
TCOON,ioos:station:TCOON:031:1,2017-08-10T04:18:00Z,28.4073,-96.7122,0.634,1111122 
TCOON,ioos:station:TCOON:031:1,2017-08-10T05:18:00Z,28.4073,-96.7122,0.625,1111122 
TCOON,ioos:station:TCOON:031:1,2017-08-10T06:18:00Z,28.4073,-96.7122,0.604,1111122 
TCOON,ioos:station:TCOON:031:1,2017-08-10T07:18:00Z,28.4073,-96.7122,0.581,1111122 
TCOON,ioos:station:TCOON:031:1,2017-08-10T08:18:00Z,28.4073,-96.7122,0.579,1111122 
TCOON,ioos:station:TCOON:031:1,2017-08-10T09:18:00Z,28.4073,-96.7122,0.576,1111122 
TCOON,ioos:station:TCOON:031:1,2017-08-10T10:18:00Z,28.4073,-96.7122,0.576,1111122 
TCOON,ioos:station:TCOON:031:1,2017-08-10T11:18:00Z,28.4073,-96.7122,0.544,1111122 
TCOON,ioos:station:TCOON:031:1,2017-08-10T12:18:00Z,28.4073,-96.7122,0.533,1111122 
TCOON,ioos:station:TCOON:031:1,2017-08-10T13:18:00Z,28.4073,-96.7122,0.594,1111122 
TCOON,ioos:station:TCOON:031:1,2017-08-10T14:18:00Z,28.4073,-96.7122,0.534,1111122 
TCOON,ioos:station:TCOON:031:1,2017-08-10T15:18:00Z,28.4073,-96.7122,0.544,1111122 
TCOON,ioos:station:TCOON:031:1,2017-08-10T16:18:00Z,28.4073,-96.7122,0.557,1111122 
TCOON,ioos:station:TCOON:031:1,2017-08-10T17:18:00Z,28.4073,-96.7122,0.529,1111122 
TCOON,ioos:station:TCOON:031:1,2017-08-10T18:18:00Z,28.4073,-96.7122,0.548,1111122 
TCOON,ioos:station:TCOON:031:1,2017-08-10T19:18:00Z,28.4073,-96.7122,0.571,1111122 
TCOON,ioos:station:TCOON:031:1,2017-08-10T20:18:00Z,28.4073,-96.7122,0.598,1111122 
TCOON,ioos:station:TCOON:031:1,2017-08-10T21:18:00Z,28.4073,-96.7122,0.615,1111122 
TCOON,ioos:station:TCOON:031:1,2017-08-10T22:18:00Z,28.4073,-96.7122,0.612,1111122 
TCOON,ioos:station:TCOON:031:1,2017-08-10T23:18:00Z,28.4073,-96.7122,0.615,1111122 
TCOON,ioos:station:TCOON:031:1,2017-08-11T00:18:00Z,28.4073,-96.7122,0.619,1111122 
TCOON,ioos:station:TCOON:031:1,2017-08-11T01:18:00Z,28.4073,-96.7122,0.625,1111122 
TCOON,ioos:station:TCOON:031:1,2017-08-11T02:18:00Z,28.4073,-96.7122,0.599,1111122 
TCOON,ioos:station:TCOON:031:1,2017-08-11T03:18:00Z,28.4073,-96.7122,0.592,1111122 
TCOON,ioos:station:TCOON:031:1,2017-08-11T04:18:00Z,28.4073,-96.7122,0.592,1111122 
TCOON,ioos:station:TCOON:031:1,2017-08-11T05:18:00Z,28.4073,-96.7122,0.582,1111122 
TCOON,ioos:station:TCOON:031:1,2017-08-11T06:18:00Z,28.4073,-96.7122,0.589,1111122 
TCOON,ioos:station:TCOON:031:1,2017-08-11T07:18:00Z,28.4073,-96.7122,0.592,1111122 
TCOON,ioos:station:TCOON:031:1,2017-08-11T08:18:00Z,28.4073,-96.7122,0.587,1111122 
TCOON,ioos:station:TCOON:031:1,2017-08-11T09:18:00Z,28.4073,-96.7122,0.593,1111122 
TCOON,ioos:station:TCOON:031:1,2017-08-11T10:18:00Z,28.4073,-96.7122,0.582,1111122 
TCOON,ioos:station:TCOON:031:1,2017-08-11T11:18:00Z,28.4073,-96.7122,0.57,1111122 
TCOON,ioos:station:TCOON:031:1,2017-08-11T12:18:00Z,28.4073,-96.7122,0.559,1111122 
TCOON,ioos:station:TCOON:031:1,2017-08-11T13:18:00Z,28.4073,-96.7122,0.538,1111122 
TCOON,ioos:station:TCOON:031:1,2017-08-11T14:18:00Z,28.4073,-96.7122,0.52,1111122 
TCOON,ioos:station:TCOON:031:1,2017-08-11T15:18:00Z,28.4073,-96.7122,0.528,1111122 
TCOON,ioos:station:TCOON:031:1,2017-08-11T16:18:00Z,28.4073,-96.7122,0.528,1111122 
TCOON,ioos:station:TCOON:031:1,2017-08-11T17:18:00Z,28.4073,-96.7122,0.548,1111122 
TCOON,ioos:station:TCOON:031:1,2017-08-11T18:18:00Z,28.4073,-96.7122,0.554,1111122 
TCOON,ioos:station:TCOON:031:1,2017-08-11T19:18:00Z,28.4073,-96.7122,0.563,1111122 
TCOON,ioos:station:TCOON:031:1,2017-08-11T20:18:00Z,28.4073,-96.7122,0.573,1111122 
TCOON,ioos:station:TCOON:031:1,2017-08-11T21:18:00Z,28.4073,-96.7122,0.568,1111122 
TCOON,ioos:station:TCOON:031:1,2017-08-11T22:18:00Z,28.4073,-96.7122,0.571,1111122 
TCOON,ioos:station:TCOON:031:1,2017-08-11T23:18:00Z,28.4073,-96.7122,0.569,1111122 
TCOON,ioos:station:TCOON:031:1,2017-08-12T00:18:00Z,28.4073,-96.7122,0.567,1111122 
TCOON,ioos:station:TCOON:031:1,2017-08-12T01:18:00Z,28.4073,-96.7122,0.571,1111122 
TCOON,ioos:station:TCOON:031:1,2017-08-12T02:18:00Z,28.4073,-96.7122,0.583,1111122 
TCOON,ioos:station:TCOON:031:1,2017-08-12T03:18:00Z,28.4073,-96.7122,0.589,1111122 
TCOON,ioos:station:TCOON:031:1,2017-08-12T04:18:00Z,28.4073,-96.7122,0.59,1111122 
TCOON,ioos:station:TCOON:031:1,2017-08-12T05:18:00Z,28.4073,-96.7122,0.586,1111122 
TCOON,ioos:station:TCOON:031:1,2017-08-12T06:18:00Z,28.4073,-96.7122,0.573,1111122 
TCOON,ioos:station:TCOON:031:1,2017-08-12T07:18:00Z,28.4073,-96.7122,0.589,1111122 
TCOON,ioos:station:TCOON:031:1,2017-08-12T08:18:00Z,28.4073,-96.7122,0.598,1111122 
TCOON,ioos:station:TCOON:031:1,2017-08-12T09:18:00Z,28.4073,-96.7122,0.581,1111122 
TCOON,ioos:station:TCOON:031:1,2017-08-12T10:18:00Z,28.4073,-96.7122,0.563,1111122 
TCOON,ioos:station:TCOON:031:1,2017-08-12T11:18:00Z,28.4073,-96.7122,0.533,1111122 
TCOON,ioos:station:TCOON:031:1,2017-08-12T12:18:00Z,28.4073,-96.7122,0.529,1111122 
TCOON,ioos:station:TCOON:031:1,2017-08-12T13:18:00Z,28.4073,-96.7122,0.541,1111122 
TCOON,ioos:station:TCOON:031:1,2017-08-12T14:18:00Z,28.4073,-96.7122,0.525,1111122 
TCOON,ioos:station:TCOON:031:1,2017-08-12T15:18:00Z,28.4073,-96.7122,0.53,1111122 
TCOON,ioos:station:TCOON:031:1,2017-08-12T16:18:00Z,28.4073,-96.7122,0.535,1111122 
TCOON,ioos:station:TCOON:031:1,2017-08-12T17:18:00Z,28.4073,-96.7122,0.524,1111122 
TCOON,ioos:station:TCOON:031:1,2017-08-12T18:18:00Z,28.4073,-96.7122,0.529,1111122 
TCOON,ioos:station:TCOON:031:1,2017-08-12T19:18:00Z,28.4073,-96.7122,0.546,1111122 
TCOON,ioos:station:TCOON:031:1,2017-08-12T20:18:00Z,28.4073,-96.7122,0.538,1111122 
TCOON,ioos:station:TCOON:031:1,2017-08-12T21:18:00Z,28.4073,-96.7122,0.546,1111122 
TCOON,ioos:station:TCOON:031:1,2017-08-12T22:18:00Z,28.4073,-96.7122,0.543,1111122 
TCOON,ioos:station:TCOON:031:1,2017-08-12T23:18:00Z,28.4073,-96.7122,0.537,1111122 
TCOON,ioos:station:TCOON:031:1,2017-08-13T00:18:00Z,28.4073,-96.7122,0.533,1111122 
TCOON,ioos:station:TCOON:031:1,2017-08-13T01:18:00Z,28.4073,-96.7122,0.54,1111122 
TCOON,ioos:station:TCOON:031:1,2017-08-13T02:18:00Z,28.4073,-96.7122,0.552,1111122 
TCOON,ioos:station:TCOON:031:1,2017-08-13T03:18:00Z,28.4073,-96.7122,0.577,1111122 
TCOON,ioos:station:TCOON:031:1,2017-08-13T04:18:00Z,28.4073,-96.7122,0.575,1111122 
TCOON,ioos:station:TCOON:031:1,2017-08-13T05:18:00Z,28.4073,-96.7122,0.574,1111122 
TCOON,ioos:station:TCOON:031:1,2017-08-13T06:18:00Z,28.4073,-96.7122,0.574,1111122 
TCOON,ioos:station:TCOON:031:1,2017-08-13T07:18:00Z,28.4073,-96.7122,0.584,1111122 
TCOON,ioos:station:TCOON:031:1,2017-08-13T08:18:00Z,28.4073,-96.7122,0.595,1111122 
TCOON,ioos:station:TCOON:031:1,2017-08-13T09:18:00Z,28.4073,-96.7122,0.579,1111122 
TCOON,ioos:station:TCOON:031:1,2017-08-13T10:18:00Z,28.4073,-96.7122,0.574,1111122 
TCOON,ioos:station:TCOON:031:1,2017-08-13T11:18:00Z,28.4073,-96.7122,0.568,1111122 
TCOON,ioos:station:TCOON:031:1,2017-08-13T12:18:00Z,28.4073,-96.7122,0.54,1111122 
TCOON,ioos:station:TCOON:031:1,2017-08-13T13:18:00Z,28.4073,-96.7122,0.549,1111122 
TCOON,ioos:station:TCOON:031:1,2017-08-13T14:18:00Z,28.4073,-96.7122,0.535,1111122 
TCOON,ioos:station:TCOON:031:1,2017-08-13T15:18:00Z,28.4073,-96.7122,0.543,1111122 
TCOON,ioos:station:TCOON:031:1,2017-08-13T16:18:00Z,28.4073,-96.7122,0.535,1111122 
TCOON,ioos:station:TCOON:031:1,2017-08-13T17:18:00Z,28.4073,-96.7122,0.538,1111122 
TCOON,ioos:station:TCOON:031:1,2017-08-13T18:18:00Z,28.4073,-96.7122,0.513,1111122 
TCOON,ioos:station:TCOON:031:1,2017-08-13T19:18:00Z,28.4073,-96.7122,0.522,1111122 
TCOON,ioos:station:TCOON:031:1,2017-08-13T20:18:00Z,28.4073,-96.7122,0.526,1111122 
TCOON,ioos:station:TCOON:031:1,2017-08-13T21:18:00Z,28.4073,-96.7122,0.547,1111122 
TCOON,ioos:station:TCOON:031:1,2017-08-13T22:18:00Z,28.4073,-96.7122,0.537,1111122 
TCOON,ioos:station:TCOON:031:1,2017-08-13T23:18:00Z,28.4073,-96.7122,0.526,1111122 
TCOON,ioos:station:TCOON:031:1,2017-08-14T00:18:00Z,28.4073,-96.7122,0.526,1111122 
TCOON,ioos:station:TCOON:031:1,2017-08-14T01:18:00Z,28.4073,-96.7122,0.546,1111122 
TCOON,ioos:station:TCOON:031:1,2017-08-14T02:18:00Z,28.4073,-96.7122,0.549,1111122 
TCOON,ioos:station:TCOON:031:1,2017-08-14T03:18:00Z,28.4073,-96.7122,0.553,1111122 
TCOON,ioos:station:TCOON:031:1,2017-08-14T04:18:00Z,28.4073,-96.7122,0.549,1111122 
TCOON,ioos:station:TCOON:031:1,2017-08-14T05:18:00Z,28.4073,-96.7122,0.563,1111122 
TCOON,ioos:station:TCOON:031:1,2017-08-14T06:18:00Z,28.4073,-96.7122,0.612,1111122 
TCOON,ioos:station:TCOON:031:1,2017-08-14T07:18:00Z,28.4073,-96.7122,0.603,1111122 
TCOON,ioos:station:TCOON:031:1,2017-08-14T08:18:00Z,28.4073,-96.7122,0.588,1111122 
TCOON,ioos:station:TCOON:031:1,2017-08-14T09:18:00Z,28.4073,-96.7122,0.577,1111122 
TCOON,ioos:station:TCOON:031:1,2017-08-14T10:18:00Z,28.4073,-96.7122,0.571,1111122 
TCOON,ioos:station:TCOON:031:1,2017-08-14T11:18:00Z,28.4073,-96.7122,0.554,1111122 
TCOON,ioos:station:TCOON:031:1,2017-08-14T12:18:00Z,28.4073,-96.7122,0.544,1111122 
TCOON,ioos:station:TCOON:031:1,2017-08-14T13:18:00Z,28.4073,-96.7122,0.511,1111122 
TCOON,ioos:station:TCOON:031:1,2017-08-14T14:18:00Z,28.4073,-96.7122,0.529,1111122 
TCOON,ioos:station:TCOON:031:1,2017-08-14T15:18:00Z,28.4073,-96.7122,0.519,1111122 
TCOON,ioos:station:TCOON:031:1,2017-08-14T16:18:00Z,28.4073,-96.7122,0.528,1111122 
TCOON,ioos:station:TCOON:031:1,2017-08-14T17:18:00Z,28.4073,-96.7122,0.51,1111122 
TCOON,ioos:station:TCOON:031:1,2017-08-14T18:18:00Z,28.4073,-96.7122,0.507,1111122 
TCOON,ioos:station:TCOON:031:1,2017-08-14T19:18:00Z,28.4073,-96.7122,0.512,1111122 
TCOON,ioos:station:TCOON:031:1,2017-08-14T20:18:00Z,28.4073,-96.7122,0.51,1111122 